Regional Weather Roundup
Issued by NWS

Home | Current Version | Previous Version | Graphics & Text | Print | Product List | Glossary On
Versions: 1 2 3 4 5 6 7 8 9 10 11 12 13 14 15 16 17 18 19 20 21 22 23 24 25 26 27 28 29 30 31 32 33 34 35 36 37 38 39 40 41 42 43 44 45 46 47 48 49 50
000
ASUS43 KFSD 240602
RWRSD

WEATHER ROUNDUP FOR SOUTH DAKOTA
NATIONAL WEATHER SERVICE SIOUX FALLS SD
100 AM CDT SUN JUL 24 2016

NOTE: "FAIR" INDICATES FEW OR NO CLOUDS BELOW 12,000 FEET WITH NO
SIGNIFICANT WEATHER AND/OR OBSTRUCTIONS TO VISIBILITY.


SDZ001>005-009-010-012>017-240700-
NORTHWEST AND NORTH CENTRAL SOUTH DAKOTA

CITY           SKY/WX    TMP DP  RH WIND       PRES   REMARKS
BUFFALO          N/A     65  46  50 N14       30.00R
FAITH            N/A     63  42  46 NW9       30.02R
MOBRIDGE       CLEAR     64  57  78 NW6       29.92R
$$

SDZ012>016-024>037-041>051-057-063-072>074-240700-
SOUTHWEST AND SOUTH CENTRAL SOUTH DAKOTA

CITY           SKY/WX    TMP DP  RH WIND       PRES   REMARKS
RAPID CTY ARPT CLEAR     59  42  53 NW9       30.07R
PIERRE         CLOUDY    68  56  65 SW7       29.92R
CUSTER         CLEAR     64  34  32 NE8       30.20R
ELLSWORTH AFB  CLEAR     69  40  34 NW9       30.07R
PHILIP         CLEAR     61  51  70 W6        30.00R
PINE RIDGE     PTCLDY    62  50  64 CALM      30.06R
WINNER         FAIR      72  56  57 W5        29.97R
$$

SDZ004>011-016>023-039-040-240700-
NORTHEAST SOUTH DAKOTA

CITY           SKY/WX    TMP DP  RH WIND       PRES   REMARKS
ABERDEEN       CLEAR     64  62  93 W3        29.87R
WATERTOWN      PTCLDY    73  69  87 NW10      29.87R
BROOKINGS      CLEAR     74  70  87 NW14      29.86R
SISSETON         N/A     69  67  93 NW5       29.82R
$$

SDZ017-020-022-023-036>040-048>070-240700-
SOUTHEAST SOUTH DAKOTA

CITY           SKY/WX    TMP DP  RH WIND       PRES   REMARKS
SIOUX FALLS    CLEAR     78  70  76 N12       29.85R
HURON          CLEAR     67  65  93 W6        29.87R
CHAMBERLAIN    PTCLDY    70  64  80 NW6       29.93R
MITCHELL       CLEAR     72  68  87 NW7       29.88R
YANKTON        CLEAR     79  66  65 NW18      29.86R
$$

ABBREVIATIONS USED IN REMARKS
   TC - TEMPERATURE IN CELSIUS
  WCI - WIND CHILL INDEX
   HX - HEAT INDEX
  VSB - VISIBILITY





USA.gov is the U.S. government's official web portal to all federal, state and local government web resources and services.